Location: Bednik
(45.3500°N, 16.3833°E)
Time: 05:37:25
(UTC+00:00)

Terra - Pass Details

Date: 08 August 2020
Orbit: 701 x 703 km, 98.2° (Epoch: 19 September)

Event Time Altitude Azimuth Distance (km) Brightness Sun altitude
Exits shadow 22:01:18 20° 260° (W) 1,618 3.7 -27.4°
Maximum altitude 22:01:47 20° 268° (W) 1,606 3.8 -27.4°
Drops below altitude 10° 22:05:17 10° 315° (NW) 2,179 5.1 -27.6°
Sets 22:08:07 0° 333° (NNW) 3,103 6.3 -27.7°
